Regional Weather Roundup
Issued by NWS

Home | Current Version | Previous Version | Text Only | Print | Product List | Glossary On
Versions: 1 2 3 4 5 6 7 8 9 10 11 12 13 14 15 16 17 18 19 20 21 22 23 24 25 26 27 28 29 30 31 32 33 34 35 36 37 38 39 40 41 42 43 44 45 46 47 48 49 50
000
ASUS45 KBOI 291210
RWRID
WEATHER ROUNDUP FOR IDAHO
NATIONAL WEATHER SERVICE BOISE ID
600 AM MDT FRI AUG 29 2014

NOTE: "FAIR" INDICATES FEW OR NO CLOUDS BELOW 12000 FEET
WITH NO SIGNIFICANT WEATHER AND/OR OBSTRUCTIONS TO VISIBILITY

IDZ012-014-291300-
SOUTHWEST IDAHO


CITY           SKY/WX    TMP DP  RH WIND       PRES   REMARKS
BOISE          CLEAR     63  39  41 SE7       29.97S
CALDWELL       CLEAR     59  39  47 CALM      29.99S
MOUNTAIN HOME  CLEAR     61  37  41 N3        29.98S
$$

IDZ016-017-291300-
SOUTHCENTRAL IDAHO


CITY           SKY/WX    TMP DP  RH WIND       PRES   REMARKS
BURLEY         CLEAR     58  45  62 S6        30.03S
JEROME         CLEAR     58  46  64 E6        30.03S
TWIN FALLS     CLEAR     63  44  50 S13       30.03S
$$

IDZ019>023-291300-
SOUTHEAST IDAHO


CITY           SKY/WX    TMP DP  RH WIND       PRES   REMARKS
IDAHO FALLS    CLEAR     50  46  86 W6        30.09S
POCATELLO      CLEAR     61  45  55 E6        30.08S
REXBURG        CLEAR     53  46  77 E6        30.09S
$$

IDZ006-010-011-018-031-032-291300-
CENTRAL IDAHO MOUNTAINS


CITY           SKY/WX    TMP DP  RH WIND       PRES   REMARKS
MCCALL         CLEAR     49  40  71 CALM      30.09S
HAILEY         CLEAR     54  37  54 NW12      30.14S
STANLEY          N/A     35  32  88 CALM      30.22S
SALMON         CLEAR     48  45  87 CALM      30.08R
CHALLIS        CLEAR     52  42  69 CALM      30.12S
$$

IDZ002-004-006-007-026-291300-
NORTHERN IDAHO


CITY           SKY/WX    TMP DP  RH WIND       PRES   REMARKS
LEWISTON       CLEAR     61  45  55 CALM      29.94F
LOWELL           N/A     54  50  86 N3        30.03S
COEUR D`ALENE  CLEAR     54  45  71 E5        29.95F
MULLAN PASS    CLEAR     51  37  58 S5        30.11F
$$


USA.gov is the U.S. government's official web portal to all federal, state and local government web resources and services.